Impacts METAR Board INFO
IDs:

KMIA - Miami Intl, FL, US

Updated at: 1255 UTC 20 Jan 2018
Potential Impact None Slight Moderate High
Time20/00Z 20/01Z 20/02Z 20/03Z 20/04Z 20/05Z 20/06Z 20/07Z 20/08Z 20/09Z 20/10Z 20/11Z 20/12Z
VIS10 10 10 10 10 10 10 10 10 10 10 10 10
CIG250 250 200 200 180 180 -- 40 38 40 40 40 200
CoverBKNBKNOVCOVCOVCBKNSCTBKNBKNBKNBKNBKNBKN
FltCatVFRVFRVFRVFRVFRVFRVFRVFRVFRVFRVFRVFRVFR
WX--------------------------
WDir30103603501003403400350000
WSpd6 3 4 4 4 0 6 4 0 4 0 0 0
WGst-- -- -- -- -- -- -- -- -- -- -- -- --
Raw hourly METARs
KMIA 192353Z 03006KT 10SM FEW040 SCT200 BKN250 19/11 A3020 RMK AO2 SLP225 T01940111 10228 20161 58000
KMIA 200053Z 01003KT 10SM FEW040 SCT200 BKN250 19/11 A3021 RMK AO2 SLP231 T01890111
KMIA 200153Z 36004KT 10SM FEW040 BKN200 OVC250 19/11 A3023 RMK AO2 SLP236 T01890111
KMIA 200253Z 35004KT 10SM SCT040 BKN200 OVC250 19/12 A3024 RMK AO2 SLP240 T01890117 51015
KMIA 200353Z 01004KT 10SM SCT040 BKN180 OVC250 18/12 A3024 RMK AO2 SLP238 T01830117
KMIA 200453Z 00000KT 10SM FEW032 SCT040 BKN180 BKN250 18/12 A3023 RMK AO2 SLP236 T01780122 402280100
KMIA 200553Z 34006KT 10SM FEW032 SCT040 SCT180 SCT250 17/12 A3022 RMK AO2 SLP233 T01720122 10194 20172 58007
KMIA 200653Z 34004KT 10SM FEW032 BKN040 BKN200 17/12 A3021 RMK AO2 SLP230 T01670122
KMIA 200753Z 00000KT 10SM BKN038 BKN200 17/13 A3020 RMK AO2 SLP225 T01720128
KMIA 200853Z 35004KT 10SM BKN040 BKN160 BKN200 17/13 A3019 RMK AO2 SLP223 T01720128 57010
KMIA 200953Z 00000KT 10SM BKN040 BKN150 BKN240 17/13 A3020 RMK AO2 SLP225 T01670133
KMIA 201053Z 00000KT 10SM BKN040 BKN200 17/13 A3019 RMK AO2 SLP223 T01670133
KMIA 201153Z 00000KT 10SM SCT039 BKN200 17/14 A3019 RMK AO2 SLP224 T01670139 10183 20167 51001